User: anonymous   Login
Location: Unspecified
(0.0000°N, 0.0000°E)
Time: 06:14:22
(UTC+00:00)
Language:

PAYLOAD C - Orbit

View from above orbital plane
View from above orbital plane
View from above satellite
View from above satellite

Ground track
Ground track

The orbit data is extracted from the following two-line orbital elements,

1 27842U 03031C   18116.54540193 +.00000046 +00000-0 +40569-4 0  9996
2 27842 098.6835 124.5752 0010195 130.2002 230.0069 14.22159281768987
Epoch (UTC): 26 April 2018 13:05:22
Eccentricity: 0.0010195
inclination: 98.6835°
perigee height: 811 km
apogee height: 825 km
right ascension of ascending node: 124.5752°
argument of perigee: 130.2002°
revolutions per day: 14.22159281
mean anomaly at epoch: 230.0069°
orbit number at epoch: 76898

The dashed part of the orbit path shows where the satellite is in the earth's shadow,  

DLR